N3WPH Weather Reports


time (UTC)temp
F
wind
direction
speed
knots
gust
knots
rain 1hr
in
rain 24hr
in
rain mn
in
humidity
%
barometer
mb
20260506091824 65 7 0.0 0.9 0.00 0.00 0.00 59 1007.3
20260506091322 65 178 0.9 0.9 0.00 0.00 0.00 58 1007.1
20260506090819 65 156 1.7 2.6 0.00 0.00 0.00 58 1007.4
20260506090317 65 170 1.7 1.7 0.00 0.00 0.00 58 1007.3
20260506085813 65 226 2.6 2.6 0.00 0.00 0.00 57 1007.3
20260506085309 66 259 0.9 1.7 0.00 0.00 0.00 57 1007.4
20260506084806 66 10 0.0 0.9 0.00 0.00 0.00 57 1007.5
20260506084302 66 194 0.9 0.9 0.00 0.00 0.00 56 1007.2
20260506083759 66 197 2.6 2.6 0.00 0.00 0.00 55 1007.5
20260506083257 66 285 0.9 0.9 0.00 0.00 0.00 55 1007.6
20260506082754 66 238 2.6 2.6 0.00 0.00 0.00 55 1007.6
20260506082249 67 4 0.0 0.9 0.00 0.00 0.00 54 1007.6
20260506081747 67 231 2.6 4.3 0.00 0.00 0.00 53 1007.4
20260506081245 67 100 0.0 0.0 0.00 0.00 0.00 54 1007.3
20260506080743 67 243 2.6 2.6 0.00 0.00 0.00 52 1007.3
20260506080239 67 235 2.6 2.6 0.00 0.00 0.00 52 1007.4
20260506073223 67 326 0.0 0.0 0.00 0.00 0.00 50 1007.6
20260506072720 68 172 1.7 2.6 0.00 0.00 0.00 50 1007.4
20260506072217 68 245 2.6 2.6 0.00 0.00 0.00 50 1007.6
20260506071715 68 218 1.7 1.7 0.00 0.00 0.00 49 1007.7
20260506071213 68 249 2.6 2.6 0.00 0.00 0.00 49 1007.7
20260506070709 68 345 0.0 0.0 0.00 0.00 0.00 49 1007.7
20260506070206 68 212 3.5 4.3 0.00 0.00 0.00 49 1007.6
20260506062143 67 209 1.7 1.7 0.00 0.00 0.00 49 1008.0
20260506061639 66 291 0.9 4.3 0.00 0.00 0.00 49 1007.9
20260506061137 64 165 2.6 4.3 0.00 0.00 0.00 53 1007.8
20260506060635 64 62 0.0 0.0 0.00 0.00 0.00 54 1008.0
20260506060132 64 66 0.9 0.9 0.00 0.00 0.00 55 1008.1
20260506051104 67 286 0.9 2.6 0.00 0.00 0.00 47 1008.7
20260506050602 68 306 0.9 0.9 0.00 0.00 0.00 47 1008.6
20260506045052 68 69 0.9 0.9 0.00 0.00 0.00 47 1008.5
20260506044550 68 340 0.9 1.7 0.00 0.00 0.00 47 1008.5
20260506044046 68 221 0.9 1.7 0.00 0.00 0.00 47 1008.3
20260506043543 68 185 2.6 4.3 0.00 0.00 0.00 46 1008.7
20260506043042 68 317 1.7 1.7 0.00 0.00 0.00 45 1008.6
20260506042541 68 144 0.0 0.9 0.00 0.00 0.00 47 1008.8
20260506042038 68 236 0.9 1.7 0.00 0.00 0.00 45 1008.7
20260506041537 68 227 0.9 0.9 0.00 0.00 0.00 47 1009.0
20260506041033 68 187 2.6 2.6 0.00 0.00 0.00 48 1008.7
20260506040531 68 228 1.7 2.6 0.00 0.00 0.00 47 1008.6
20260506040027 68 60 0.9 0.9 0.00 0.01 0.01 48 1008.8
20260506035524 69 175 1.7 1.7 0.00 0.01 0.01 46 1008.9
20260506035021 69 199 0.0 0.9 0.00 0.01 0.01 45 1008.7
20260506034518 70 154 1.7 1.7 0.00 0.01 0.01 45 1008.8
20260506034015 70 192 2.6 2.6 0.00 0.01 0.01 44 1008.7
20260506033512 70 166 2.6 4.3 0.00 0.01 0.01 44 1008.8
20260506033009 70 273 2.6 5.2 0.00 0.01 0.01 45 1008.8
20260506032507 70 205 2.6 4.3 0.00 0.01 0.01 45 1008.9
20260506032003 70 240 1.7 2.6 0.00 0.01 0.01 44 1008.8
20260506031501 71 155 1.7 1.7 0.00 0.01 0.01 45 1008.7
20260506030958 71 244 1.7 1.7 0.00 0.01 0.01 44 1008.7
20260506030456 71 216 3.5 4.3 0.00 0.01 0.01 44 1008.6
20260506025952 71 247 1.7 2.6 0.00 0.01 0.01 45 1008.7
20260506025449 71 213 1.7 2.6 0.00 0.01 0.01 45 1008.7
20260506024946 70 187 2.6 4.3 0.00 0.01 0.01 45 1008.8
20260506024443 69 153 1.7 1.7 0.00 0.01 0.01 47 1008.7
20260506023938 66 252 0.0 0.9 0.00 0.01 0.01 53 1008.6
20260506023435 63 65 0.0 0.0 0.00 0.01 0.01 63 1008.7
20260506022932 63 65 0.0 0.0 0.00 0.01 0.01 64 1008.8
20260506022430 64 64 0.0 0.0 0.00 0.01 0.01 63 1008.7
20260506021928 64 66 0.9 0.9 0.00 0.01 0.01 62 1008.6
20260506021425 65 57 0.0 0.0 0.00 0.01 0.01 60 1008.8
20260506020922 65 67 0.0 0.9 0.00 0.01 0.01 59 1008.9
20260506020420 66 73 0.9 0.9 0.00 0.01 0.01 57 1008.8
20260506015916 67 97 0.9 0.9 0.00 0.01 0.01 55 1008.7
20260506015414 68 85 0.9 0.9 0.00 0.01 0.01 55 1008.8
20260506014910 68 73 0.9 0.9 0.00 0.01 0.01 54 1008.8
20260506014408 68 72 0.0 0.0 0.00 0.01 0.01 52 1008.8
20260506013904 68 70 0.0 0.0 0.00 0.01 0.01 53 1008.7
20260506013402 68 93 0.9 0.9 0.00 0.01 0.01 52 1008.6
20260506012858 67 80 0.9 0.9 0.00 0.01 0.01 55 1008.5
20260506012355 67 55 0.0 0.0 0.00 0.01 0.01 55 1008.6
20260506011852 68 41 0.0 0.0 0.00 0.01 0.01 55 1008.3
20260506011349 68 56 0.0 0.0 0.00 0.01 0.01 53 1008.3
20260506010846 68 52 0.0 0.0 0.00 0.01 0.01 53 1008.1
20260506010344 69 36 0.0 0.0 0.00 0.01 0.01 51 1008.1
20260506005841 70 34 0.0 0.0 0.00 0.01 0.01 48 1008.1
20260506005338 71 46 0.0 0.0 0.00 0.01 0.01 47 1007.7
20260506004833 71 122 0.9 0.9 0.00 0.01 0.01 46 1007.9
20260506004331 71 176 1.7 1.7 0.00 0.01 0.01 45 1007.6
20260506003827 72 67 0.9 0.9 0.00 0.01 0.01 45 1007.8
20260506003324 72 145 0.9 1.7 0.00 0.01 0.01 45 1007.7
20260506002820 72 41 0.0 0.0 0.00 0.01 0.01 45 1007.8
20260506002317 74 52 0.0 0.9 0.00 0.01 0.01 43 1007.9
20260506001812 74 7 0.0 0.0 0.00 0.01 0.01 42 1007.7
20260506001310 74 278 0.9 1.7 0.00 0.01 0.01 42 1007.6
20260506000806 74 326 0.9 0.9 0.00 0.01 0.01 42 1007.7
20260506000304 74 352 0.0 0.0 0.00 0.01 0.01 41 1007.6
20260505235801 74 343 0.9 0.9 0.00 0.01 0.01 41 1007.7
20260505235259 75 31 0.0 0.0 0.00 0.01 0.01 41 1007.5
20260505234755 75 162 0.9 0.9 0.00 0.01 0.01 40 1007.3
20260505234253 75 212 2.6 2.6 0.00 0.01 0.01 40 1007.5
20260505233749 75 351 0.9 1.7 0.00 0.01 0.01 40 1007.4
20260505233247 75 221 0.9 0.9 0.00 0.01 0.01 40 1007.2
20260505232744 75 175 2.6 2.6 0.00 0.01 0.01 39 1007.3
20260505232242 75 182 0.9 0.9 0.00 0.01 0.01 39 1007.4
20260505231738 75 254 4.3 8.7 0.00 0.01 0.01 40 1007.1
20260505231237 76 273 1.7 1.7 0.00 0.01 0.01 39 1007.2
20260505230735 75 188 2.6 4.3 0.00 0.01 0.01 40 1007.0
20260505230231 75 298 1.7 2.6 0.00 0.01 0.01 40 1007.0
20260505225728 76 109 4.3 5.2 0.00 0.01 0.01 40 1007.0
20260505225225 76 233 5.2 6.1 0.00 0.01 0.01 39 1007.2
20260505224720 76 176 2.6 4.3 0.00 0.01 0.01 40 1007.0
20260505224218 76 154 1.7 2.6 0.00 0.01 0.01 40 1007.0
20260505223716 76 80 0.9 0.9 0.00 0.01 0.01 40 1007.1
20260505223211 76 74 0.9 0.9 0.00 0.01 0.01 40 1006.9
20260505222708 76 196 4.3 7.8 0.00 0.01 0.01 40 1007.0
20260505222203 75 211 2.6 2.6 0.00 0.01 0.01 40 1007.0
20260505221701 75 145 1.7 1.7 0.00 0.01 0.01 41 1006.8
20260505221158 75 198 1.7 2.6 0.00 0.01 0.01 41 1006.8
20260505220655 75 227 2.6 2.6 0.00 0.01 0.01 41 1006.9
20260505220153 75 25 0.9 0.9 0.00 0.01 0.01 42 1006.8
20260505215650 75 180 2.6 4.3 0.00 0.01 0.01 42 1007.0
20260505215148 75 275 2.6 4.3 0.00 0.01 0.01 43 1007.0
20260505214646 75 220 1.7 1.7 0.00 0.01 0.01 42 1007.0
20260505214143 76 5 0.9 1.7 0.00 0.01 0.01 42 1007.0
20260505213640 76 232 4.3 7.0 0.00 0.01 0.01 41 1007.0
20260505213137 76 207 1.7 1.7 0.00 0.01 0.01 41 1007.0
20260505212632 76 335 1.7 2.6 0.00 0.01 0.01 39 1006.9
20260505212131 77 47 0.0 0.9 0.00 0.01 0.01 39 1006.9
20260505211627 77 236 5.2 12.2 0.00 0.01 0.01 37 1006.7
20260505211124 77 22 0.9 1.7 0.00 0.01 0.01 37 1006.7
20260505210621 77 232 1.7 2.6 0.00 0.01 0.01 37 1006.6
20260505210118 78 129 1.7 2.6 0.00 0.01 0.01 37 1006.4
20260505205615 78 209 4.3 6.1 0.00 0.01 0.01 37 1006.7
20260505205113 77 156 0.9 1.7 0.00 0.01 0.01 39 1006.6
20260505204610 76 198 2.6 4.3 0.00 0.01 0.01 40 1006.7
20260505204107 77 128 0.9 1.7 0.00 0.01 0.01 40 1006.7
20260505203604 77 146 6.1 7.0 0.00 0.01 0.01 37 1006.7
20260505203101 77 245 6.1 8.7 0.00 0.01 0.01 37 1006.6
20260505202557 77 164 7.8 9.6 0.00 0.01 0.01 36 1006.5
20260505202053 78 228 4.3 7.0 0.00 0.01 0.01 36 1006.5
20260505201550 78 197 3.5 6.1 0.00 0.01 0.01 35 1006.5
20260505201048 78 269 4.3 6.1 0.00 0.01 0.01 35 1006.6
20260505200545 78 180 6.1 8.7 0.00 0.01 0.01 35 1006.2
20260505200042 78 186 4.3 9.6 0.00 0.01 0.01 35 1006.3
20260505195538 79 167 3.5 5.2 0.00 0.01 0.01 35 1006.2
20260505195036 79 187 4.3 8.7 0.00 0.01 0.01 34 1006.4
20260505194533 80 211 6.1 7.0 0.00 0.01 0.01 34 1006.2
20260505194028 82 7 4.3 6.1 0.00 0.01 0.01 33 1006.6
20260505193526 82 126 5.2 8.7 0.00 0.01 0.01 33 1006.4
20260505193023 81 263 3.5 5.2 0.00 0.01 0.01 33 1006.5
20260505192521 80 238 4.3 7.8 0.00 0.01 0.01 34 1006.6
20260505192018 81 234 5.2 7.8 0.00 0.01 0.01 34 1006.6
20260505191517 80 215 8.7 13.9 0.00 0.01 0.01 33 1006.7
20260505191014 81 339 3.5 5.2 0.00 0.01 0.01 35 1006.7
20260505190509 80 287 1.7 2.6 0.00 0.01 0.01 37 1006.9
20260505190005 81 268 4.3 5.2 0.00 0.01 0.01 34 1006.9
20260505185502 81 213 4.3 6.1 0.00 0.01 0.01 33 1007.1
20260505184958 81 260 8.7 13.0 0.00 0.01 0.01 34 1007.2
20260505184455 80 303 2.6 4.3 0.00 0.01 0.01 38 1007.0
20260505183951 79 34 2.6 4.3 0.00 0.01 0.01 35 1007.2
20260505183449 79 180 0.9 1.7 0.00 0.01 0.01 33 1007.3
20260505182945 79 271 3.5 5.2 0.00 0.01 0.01 34 1007.6
20260505182442 79 186 6.1 8.7 0.00 0.01 0.01 35 1007.7
20260505181938 79 144 3.5 4.3 0.00 0.01 0.01 37 1007.4
20260505181436 80 138 2.6 4.3 0.00 0.01 0.01 36 1007.5
20260505180933 80 320 3.5 5.2 0.00 0.01 0.01 35 1007.7
20260505180429 80 222 3.5 5.2 0.00 0.01 0.01 33 1007.7
20260505175926 80 26 7.0 12.2 0.00 0.01 0.01 34 1007.6
20260505175422 80 334 0.9 0.9 0.00 0.01 0.01 38 1007.6
20260505174918 79 207 6.1 7.8 0.00 0.01 0.01 38 1007.8
20260505174416 80 23 1.7 2.6 0.00 0.01 0.01 40 1007.8
20260505173912 79 174 6.1 7.0 0.00 0.01 0.01 40 1007.8
20260505173408 78 24 1.7 2.6 0.00 0.01 0.01 41 1007.7
20260505172905 79 18 0.9 0.9 0.00 0.01 0.01 45 1007.8
20260505172403 79 302 2.6 4.3 0.00 0.01 0.01 43 1007.8
20260505171903 78 187 2.6 2.6 0.00 0.01 0.01 41 1007.7
20260505171400 78 322 2.6 4.3 0.00 0.01 0.01 42 1007.9
20260505170856 78 94 2.6 4.3 0.00 0.01 0.01 42 1007.6
20260505170354 78 173 2.6 2.6 0.00 0.01 0.01 42 1007.9
20260505165848 78 248 4.3 7.0 0.00 0.01 0.01 40 1008.1
20260505165344 78 240 3.5 5.2 0.00 0.01 0.01 43 1008.2
20260505164840 78 210 4.3 5.2 0.00 0.01 0.01 41 1008.1
20260505164337 78 358 2.6 5.2 0.00 0.01 0.01 41 1008.3
20260505163836 78 257 3.5 4.3 0.00 0.01 0.01 44 1008.6
20260505163334 78 336 2.6 4.3 0.00 0.01 0.01 42 1008.6
20260505162832 78 307 4.3 6.1 0.00 0.01 0.01 43 1008.5
20260505162328 77 344 1.7 2.6 0.00 0.01 0.01 41 1008.5
20260505161825 77 293 5.2 7.0 0.00 0.01 0.01 42 1008.6
20260505161322 77 39 6.1 8.7 0.00 0.01 0.01 43 1008.5
20260505160819 76 359 0.9 0.9 0.00 0.01 0.01 44 1008.7
20260505160318 76 231 1.7 1.7 0.00 0.01 0.01 44 1008.5
20260505153256 77 252 2.6 5.2 0.00 0.01 0.01 43 1009.0
20260505152753 76 223 2.6 5.2 0.00 0.01 0.01 45 1009.1
20260505152250 76 137 4.3 6.1 0.00 0.01 0.01 45 1009.0
20260505151744 77 149 3.5 6.1 0.00 0.01 0.01 44 1009.1
20260505151242 76 204 4.3 6.1 0.00 0.01 0.01 45 1008.9
20260505150739 76 215 2.6 5.2 0.00 0.01 0.01 45 1009.0
20260505150236 76 224 6.1 7.8 0.00 0.01 0.01 44 1009.3
20260505140200 73 13 1.7 2.6 0.00 0.01 0.01 49 1009.3
20260505130124 70 159 1.7 1.7 0.00 0.01 0.01 55 1009.6
20260505124613 68 37 0.0 0.9 0.00 0.01 0.01 57 1009.7
20260505124110 68 207 2.6 2.6 0.00 0.01 0.01 56 1009.8
20260505123606 69 345 0.0 0.9 0.00 0.01 0.01 57 1009.8
20260505123103 69 220 1.7 1.7 0.00 0.01 0.01 56 1009.6
20260505122559 68 187 1.7 1.7 0.00 0.01 0.01 56 1009.8
20260505122056 68 243 1.7 1.7 0.00 0.01 0.01 59 1009.8
20260505121553 68 230 1.7 1.7 0.00 0.01 0.01 57 1009.9
20260505121050 67 190 0.9 0.9 0.00 0.01 0.01 58 1009.8
20260505120546 67 198 1.7 1.7 0.00 0.01 0.01 57 1009.7
20260505120042 67 73 0.9 1.7 0.00 0.01 0.01 57 1009.5
20260505115536 66 313 0.9 0.9 0.00 0.01 0.01 59 1009.4
20260505115034 65 250 1.7 1.7 0.00 0.01 0.01 61 1009.4
20260505114531 64 200 0.9 1.7 0.00 0.01 0.01 62 1009.6
20260505114027 64 22 0.0 0.9 0.00 0.01 0.01 64 1009.7
20260505113524 64 166 1.7 1.7 0.00 0.01 0.01 64 1009.6
20260505113020 63 242 2.6 5.2 0.00 0.01 0.01 64 1009.5
20260505112516 63 338 0.9 0.9 0.00 0.01 0.01 65 1009.6
20260505112014 63 148 3.5 5.2 0.00 0.01 0.01 64 1009.4
20260505111508 63 268 0.9 0.9 0.00 0.01 0.01 64 1009.3
20260505111005 62 245 3.5 5.2 0.00 0.01 0.01 65 1009.4
20260505110501 61 59 0.0 0.9 0.00 0.01 0.01 69 1009.4
20260505101934 58 337 0.9 0.9 0.00 0.01 0.01 72 1008.9
20260505101433 58 16 0.0 0.0 0.00 0.01 0.01 74 1008.9
20260505100929 57 247 0.9 0.9 0.00 0.01 0.01 74 1008.7
20260505100426 57 74 0.9 0.9 0.00 0.01 0.01 75 1009.0
20260505095921 58 241 0.0 0.0 0.00 0.01 0.01 72 1008.9
20260505095419 58 216 1.7 1.7 0.00 0.01 0.01 71 1009.0
20260505094915 59 191 0.9 0.9 0.00 0.01 0.01 70 1008.8
20260505094412 59 167 0.9 1.7 0.00 0.01 0.01 69 1008.9
20260505093908 59 151 1.7 2.6 0.00 0.01 0.01 69 1008.7
20260505093405 59 291 0.9 1.7 0.00 0.01 0.01 68 1008.8
20260505092902 59 195 2.6 4.3 0.00 0.01 0.01 68 1008.8
20260505092400 60 259 2.6 2.6 0.00 0.01 0.01 67 1008.8